Weather History for Homestead AFB, FL

Change the Weather History Date:

Tuesday, November 19, 2013

  Actual Average Record
Temperature  
Mean Temperature 78 °F -  
Max Temperature 84 °F 81 °F 91 °F (1947)
Min Temperature 71 °F 61 °F 42 °F (1949)
Cooling Degree Days 12    
Growing Degree Days 28 (Base 50)    
Moisture  
Dew Point 71 °F    
Average Humidity 89    
Maximum Humidity 94    
Minimum Humidity 62    
Precipitation  
Precipitation 0.03 in - - ()
Sea Level Pressure  
Sea Level Pressure 29.94 in    
Wind  
Wind Speed 5 mph (North)    
Max Wind Speed 10 mph    
Max Gust Speed -    
Visibility 10 miles    
Events Rain , Thunderstorm    
Averages and records for this station are not official NWS values.
T = Trace of Precipitation, MM = Missing Value Source: NWS Daily Summary

Daily Weather History Graph

Daily Weather History Graph

Search for Another Location

Airport:

Trip Planner

Search our weather history database for the weather conditions in past years. The results will help you decide how hot, cold, wet, or windy it might be!

Date:

Astronomy

Nov. 19, 2013 Rise Set
Actual Time 6:41 AM EST 5:31 PM EST
Civil Twilight 6:17 AM EST 5:56 PM EST
Nautical Twilight 5:49 AM EST 6:24 PM EST
Astronomical Twilight 5:22 AM EST 6:51 PM EST
Moon 7:23 PM EST (11/19) 8:18 AM EST (11/19)
Length of Visible Light 11h 38m
Length of Day
10h 49m
Waning Gibbous, 96% of the Moon is Illuminated
Nov 19
Waning Gibbous
Nov 25
Last Quarter
Dec 2
New
Dec 9
First Quarter
Dec 17
Full

Hourly Weather History & Observations

Time (EST) Temp. Heat Index Dew Point Humidity Pressure Visibility Wind Dir Wind Speed Gust Speed Precip Events Conditions
12:58 AM 75.2 °F - 71.6 °F 89% 29.94 in 10.0 mi West 3.5 mph - N/A   Scattered Clouds
1:58 AM 73.4 °F - 71.6 °F 94% 29.92 in 10.0 mi SSW 1.2 mph - N/A   Mostly Cloudy
2:58 AM 73.4 °F - 69.8 °F 88% 29.91 in 10.0 mi West 3.5 mph - N/A   Clear
3:58 AM 73.4 °F - 69.8 °F 88% 29.91 in 10.0 mi West 2.3 mph - N/A   Mostly Cloudy
4:58 AM 71.6 °F - 69.8 °F 94% 29.91 in 10.0 mi WNW 4.6 mph - N/A   Partly Cloudy
5:58 AM 71.6 °F - 69.8 °F 94% 29.92 in 10.0 mi SSW 3.5 mph - N/A   Clear
6:58 AM 71.6 °F - 69.8 °F 94% 29.93 in 10.0 mi Calm Calm - N/A   Clear
7:58 AM 73.4 °F - 69.8 °F 88% 29.95 in 10.0 mi West 3.5 mph - N/A   Clear
8:58 AM 78.8 °F - 69.8 °F 74% 29.96 in 10.0 mi West 3.5 mph - N/A   Clear
9:58 AM 80.6 °F 83.9 °F 69.8 °F 70% 29.96 in 10.0 mi Variable 4.6 mph - N/A   Clear
10:58 AM 82.4 °F 87.2 °F 71.6 °F 70% 29.95 in 10.0 mi NNW 6.9 mph - N/A   Partly Cloudy
11:58 AM 82.4 °F 86.3 °F 69.8 °F 66% 29.94 in 10.0 mi NNW 8.1 mph - N/A   Scattered Clouds
12:58 PM 84.2 °F 88.4 °F 69.8 °F 62% 29.91 in 10.0 mi North 5.8 mph - N/A   Partly Cloudy
1:43 PM 82.4 °F 87.2 °F 71.6 °F 70% 29.88 in 10.0 mi ESE 6.9 mph - N/A   Light Drizzle
1:46 PM 82.4 °F 87.2 °F 71.6 °F 70% 29.88 in 10.0 mi ESE 6.9 mph - N/A   Mostly Cloudy
1:58 PM 80.6 °F 84.6 °F 71.6 °F 74% 29.89 in 10.0 mi SE 5.8 mph - 0.00 in   Scattered Clouds
2:58 PM 82.4 °F 87.2 °F 71.6 °F 70% 29.88 in 10.0 mi ESE 8.1 mph - N/A   Clear
3:58 PM 82.4 °F 87.2 °F 71.6 °F 70% 29.88 in 10.0 mi SSE 6.9 mph - N/A   Partly Cloudy
4:58 PM 78.8 °F - 71.6 °F 78% 29.88 in 10.0 mi South 5.8 mph - N/A   Clear
5:58 PM 77.0 °F - 71.6 °F 83% 29.91 in 10.0 mi SSE 4.6 mph - N/A   Mostly Cloudy
6:28 PM 77.0 °F - 71.6 °F 83% 29.91 in 10.0 mi SSE 2.3 mph - N/A Thunderstorm Light Drizzle
6:30 PM 77.0 °F - 71.6 °F 83% 29.91 in 10.0 mi SSE 2.3 mph - N/A   Clear
6:35 PM 77.0 °F - 71.6 °F 83% 29.91 in 10.0 mi East 1.2 mph - N/A Rain , Thunderstorm Light Rain
6:36 PM 77.0 °F - 71.6 °F 83% 29.91 in 10.0 mi Calm Calm - N/A   Partly Cloudy
6:37 PM 77.0 °F - 71.6 °F 83% 29.91 in 10.0 mi Calm Calm - N/A Rain Light Rain
6:39 PM 77.0 °F - 71.6 °F 83% 29.91 in 10.0 mi WNW 1.2 mph - N/A   Partly Cloudy
6:40 PM 77.0 °F - 71.6 °F 83% 29.91 in 10.0 mi West 2.3 mph - N/A   Drizzle
6:43 PM 77.0 °F - 71.6 °F 83% 29.91 in 10.0 mi NW 4.6 mph - N/A   Partly Cloudy
6:45 PM 77.0 °F - 71.6 °F 83% 29.92 in - NW 6.9 mph - N/A   Light Drizzle
6:46 PM 77.0 °F - 71.6 °F 83% 29.92 in - NW 6.9 mph - N/A   Partly Cloudy
6:47 PM 77.0 °F - 71.6 °F 83% 29.92 in - NW 6.9 mph - N/A   Light Drizzle
6:48 PM 77.0 °F - 71.6 °F 83% 29.92 in - NW 6.9 mph - N/A   Partly Cloudy
6:50 PM 77.0 °F - 71.6 °F 83% 29.91 in - NNW 6.9 mph - N/A   Light Drizzle
6:51 PM 77.0 °F - 71.6 °F 83% 29.91 in - NNW 6.9 mph - N/A   Partly Cloudy
6:58 PM 77.0 °F - 71.6 °F 83% 29.93 in 10.0 mi NNW 4.6 mph - 0.00 in Thunderstorm Partly Cloudy
7:17 PM 75.2 °F - 71.6 °F 89% 29.93 in 10.0 mi North 5.8 mph - N/A   Light Drizzle
7:20 PM 75.2 °F - 71.6 °F 89% 29.93 in 10.0 mi North 5.8 mph - N/A   Scattered Clouds
7:26 PM 75.2 °F - 71.6 °F 89% 29.94 in 10.0 mi North 8.1 mph - N/A   Light Drizzle
7:28 PM 75.2 °F - 71.6 °F 89% 29.94 in 10.0 mi North 8.1 mph - N/A   Partly Cloudy
7:41 PM 75.2 °F - 71.6 °F 89% 29.94 in 10.0 mi North 9.2 mph - N/A Rain Light Rain
7:43 PM 75.2 °F - 71.6 °F 89% 29.94 in 10.0 mi North 9.2 mph - N/A   Scattered Clouds
7:44 PM 75.2 °F - 71.6 °F 89% 29.94 in 10.0 mi North 8.1 mph - N/A Rain Rain
7:46 PM 75.2 °F - 71.6 °F 89% 29.94 in 10.0 mi North 10.4 mph - N/A   Scattered Clouds
7:47 PM 73.4 °F - 71.6 °F 94% 29.95 in 10.0 mi North 10.4 mph - N/A Rain Rain
7:50 PM 73.4 °F - 71.6 °F 94% 29.95 in - North 10.4 mph - N/A   Scattered Clouds
7:51 PM 73.4 °F - 71.6 °F 94% 29.95 in - North 9.2 mph - N/A Rain Rain
7:52 PM 73.4 °F - 71.6 °F 94% 29.95 in - North 9.2 mph - N/A   Scattered Clouds
7:54 PM 73.4 °F - 71.6 °F 94% 29.94 in - North 10.4 mph - N/A Rain Light Rain
7:55 PM 73.4 °F - 71.6 °F 94% 29.94 in - North 9.2 mph - N/A   Scattered Clouds
7:58 PM 73.4 °F - 71.6 °F 94% 29.95 in - North 9.2 mph - 0.00 in   Scattered Clouds
7:59 PM 73.4 °F - 71.6 °F 94% 29.94 in - North 9.2 mph - N/A Rain Light Rain
8:01 PM 73.4 °F - 71.6 °F 94% 29.94 in - NNW 8.1 mph - N/A   Scattered Clouds
8:02 PM 73.4 °F - 71.6 °F 94% 29.95 in - North 6.9 mph - N/A Rain Light Rain
8:04 PM 73.4 °F - 71.6 °F 94% 29.95 in - North 6.9 mph - N/A   Scattered Clouds
8:05 PM 73.4 °F - 71.6 °F 94% 29.95 in - North 8.1 mph - N/A Rain Light Rain
8:06 PM 73.4 °F - 71.6 °F 94% 29.95 in - North 8.1 mph - N/A   Scattered Clouds
8:07 PM 73.4 °F - 71.6 °F 94% 29.95 in - North 8.1 mph - N/A Rain Rain
8:09 PM 73.4 °F - 71.6 °F 94% 29.95 in - North 6.9 mph - N/A   Scattered Clouds
8:10 PM 73.4 °F - 71.6 °F 94% 29.95 in - North 6.9 mph - N/A Rain Rain
8:12 PM 73.4 °F - 71.6 °F 94% 29.95 in - North 6.9 mph - N/A   Scattered Clouds
8:13 PM 73.4 °F - 71.6 °F 94% 29.95 in - North 5.8 mph - N/A Rain Light Rain
8:16 PM 73.4 °F - 71.6 °F 94% 29.95 in - North 4.6 mph - N/A   Partly Cloudy
8:17 PM 73.4 °F - 71.6 °F 94% 29.95 in - North 5.8 mph - N/A Rain Light Rain
8:19 PM 73.4 °F - 71.6 °F 94% 29.95 in - North 4.6 mph - N/A   Scattered Clouds
8:21 PM 73.4 °F - 71.6 °F 94% 29.95 in - North 5.8 mph - N/A Rain Light Rain
8:23 PM 73.4 °F - 71.6 °F 94% 29.95 in - North 5.8 mph - N/A   Scattered Clouds
8:24 PM 73.4 °F - 71.6 °F 94% 29.95 in - North 5.8 mph - N/A Rain Rain
8:26 PM 73.4 °F - 71.6 °F 94% 29.95 in - North 4.6 mph - N/A   Scattered Clouds
8:27 PM 73.4 °F - 71.6 °F 94% 29.95 in - North 4.6 mph - N/A Rain Rain
8:30 PM 73.4 °F - 71.6 °F 94% 29.95 in - NNE 4.6 mph - N/A   Scattered Clouds
8:31 PM 73.4 °F - 71.6 °F 94% 29.95 in - NNE 3.5 mph - N/A Rain Rain
8:32 PM 73.4 °F - 71.6 °F 94% 29.95 in - North 3.5 mph - N/A   Scattered Clouds
8:34 PM 73.4 °F - 71.6 °F 94% 29.95 in - North 3.5 mph - N/A Rain Rain
8:35 PM 73.4 °F - 71.6 °F 94% 29.95 in - North 3.5 mph - N/A   Scattered Clouds
8:36 PM 73.4 °F - 71.6 °F 94% 29.95 in - North 3.5 mph - N/A Rain Light Rain
8:38 PM 73.4 °F - 71.6 °F 94% 29.95 in - North 4.6 mph - N/A   Scattered Clouds
8:39 PM 73.4 °F - 71.6 °F 94% 29.95 in - NNE 4.6 mph - N/A Rain Light Rain
8:42 PM 73.4 °F - 71.6 °F 94% 29.95 in - NNE 3.5 mph - N/A   Scattered Clouds
8:45 PM 73.4 °F - 71.6 °F 94% 29.95 in - ENE 3.5 mph - N/A Rain Light Rain
8:46 PM 73.4 °F - 71.6 °F 94% 29.95 in - ENE 3.5 mph - N/A   Partly Cloudy
8:58 PM 73.4 °F - 71.6 °F 94% 29.96 in 10.0 mi ESE 2.3 mph - 0.03 in   Partly Cloudy
9:01 PM 73.4 °F - 71.6 °F 94% 29.95 in 10.0 mi ESE 3.5 mph - N/A   Light Drizzle
9:03 PM 73.4 °F - 71.6 °F 94% 29.95 in 10.0 mi ESE 3.5 mph - N/A   Partly Cloudy
9:04 PM 73.4 °F - 71.6 °F 94% 29.95 in 10.0 mi ESE 3.5 mph - N/A   Light Drizzle
9:07 PM 73.4 °F - 71.6 °F 94% 29.95 in 10.0 mi SE 3.5 mph - N/A   Partly Cloudy
9:58 PM 73.4 °F - 71.6 °F 94% 29.96 in 10.0 mi Calm Calm - 0.00 in   Clear
10:58 PM 73.4 °F - 71.6 °F 94% 29.96 in 10.0 mi North 2.3 mph - N/A   Partly Cloudy
11:08 PM 73.4 °F - 71.6 °F 94% 29.95 in 9.0 mi NNE 4.6 mph - N/A   Scattered Clouds
11:28 PM 73.4 °F - 71.6 °F 94% 29.94 in 5.0 mi NNW 2.3 mph - N/A   Clear
11:33 PM 73.4 °F - 71.6 °F 94% 29.94 in 6.0 mi North 4.6 mph - N/A   Clear
11:48 PM 73.4 °F - 71.6 °F 94% 29.95 in 10.0 mi North 3.5 mph - N/A   Clear
11:58 PM 73.4 °F - 71.6 °F 94% 29.96 in 10.0 mi North 2.3 mph - N/A   Clear